DECAYED
Showing default

LEMUR 2 SARAHBETTYBOO, 43888 (Decayed)

Orbit data source: Space-Track

LEMUR 2 SARAHBETTYBOO, 43888 was a payload satellite owned by Spire/Lux (US) in LEO that was launched on Thu, 27 Dec 2018 UTC via a SOYUZ-2-1A launch vehicle from the Vostochny Cosmodrome (VOSTO). Payload-class satellites include a variety of spacecraft equipped with specific instruments for various scientific and technological missions. These include communications satellites like Starlink; space stations such as the ISS; scientific satellites like the Hubble; Earth observation satellites from companies like Planet Labs, Umbra, and HawkEye 360; GPS; miniature CubeSats for education and research; and military/defense satellites.

Not visible in the next 10 days
Identifier
43888, 2018-111N
Orbit
Decayed
Country
Flag of USUS
Related business
Manufacturer
Spire/Glasgow
Mission
Decayed Commercial Com/MetRO
Bus & Motor
CUBESAT 3U, Unknown motor
Mass
4.6 kg wet, 4.6 kg dry
Launch date (UTC)
2018-12-27 (7 years ago)
Launch vehicle
SOYUZ-2-1A
Launch site
Vostochny Cosmodrome (VOSTO)
Object type
Payload
Rocket body
Debris
Shape & HBR
Box + 2 Pan, 0.5 m
Radar Cross Section
0.124 m², Small (<0.1 m²)

Expand to show TLE details & history
Last TLE update: 9 months ago

TLE from 9 months ago
0 LEMUR 2 SARAHBETTYBOO
1 43888U 18111N   25076.97311674  .12501855  27633-5  13475-2 0  9996
2 43888  97.6186  13.3168 0009207 170.1096 190.0384 16.37393291342068
Epoch: 2025-03-17T23:21Z
TLE epoch observation values (Epoch: 2025-03-17T23:21:17.286Z)
Latitude
-0.00005°
Longitude
-152.78749°
Altitude
181.928 km
Speed
7.794 km/s
True Right ascension
00h 53m 16s
True Declination
0° 00' 00"
Sunlit
Object was in daylight at epoch
Visualization orbit readout
Latitude
Unknown
Longitude
Unknown
Altitude
Unknown
Speed
Unknown
Apparent Right ascension
Unknown
Apparent Declination
Unknown
Sunlit
N/A
Visualization observer readout
Local Sidereal Time
01:10:22
Azimuth
Unknown
Elevation
Unknown
Doppler factor
Unknown
Orbital elements
Apogee altitude
175.595 km
Perigee altitude
163.538 km
Semi-major axis
6,547.704 km
Eccentricity
0.00092
Inclination
97.6186°
RAAN
13.3168°
Arg. of periapsis
170.1096°
True anomaly
190.02003°
Mean anomaly
190.0384°
Eccentric anomaly
190.02921°
Mean motion
4.09647 °/min
Orbital period
87.88 mins
BSTAR
0.0013475
Loading maneuver chart data...
Computing Atmospheric mass density...

Documentation

Showing up to 5 results
|